Regional Weather Roundup
Issued by NWS Portland, ME

Home | Current Version | Previous Version | Text Only | Print | Product List | Glossary On
Versions: 1 2 3 4 5 6 7 8 9 10 11 12 13 14 15 16 17 18 19 20 21 22 23 24 25 26 27 28 29 30 31 32 33 34 35 36 37 38 39 40 41 42 43 44 45 46 47 48 49 50
000
ASUS41 KGYX 231905
RWRGYX
WEATHER ROUNDUP FOR MAINE AND NEW HAMPSHIRE
NATIONAL WEATHER SERVICE GRAY ME
300 PM EDT WED MAY 23 2018

MEZ002-005-006-010-012-015-018-020-021-024-026-027-029-232000-
MAINE

CITY           SKY/WX    TMP DP  RH WIND       PRES   REMARKS
PORTLAND       FAIR      71  56  58 S17       29.78F
SANFORD        FAIR      82  49  31 W14       29.80F
BAR HARBOR     TSTM      62  58  86 NW8       29.82R
WISCASSET      FAIR      77  54  44 SW13G20   29.76F
ROCKLAND       PTSUNNY   68  55  63 S12       29.75F
FRYEBURG       FAIR      78  46  32 NW13G21   29.81S
LEWISTONAUBURN PTSUNNY   79  47  32 W21G29    29.78S
AUGUSTA        FAIR      79  48  33 NW20G32   29.78R
WATERVILLE     FAIR      74  55  51 N16G29    29.77R
BANGOR         PTSUNNY   65  52  62 N18G25    29.82R
GREENVILLE       N/A     52  46  80 NW14      29.86R
MILLINOCKET    CLOUDY    56  47  71 N9        29.88R
HOULTON        CLOUDY    53  48  83 N9        29.85S
PRESQUE ISLE   CLOUDY    49  45  86 N14       29.89R
FRENCHVILLE    LGT RAIN  45  39  79 NE6       29.91R
CARIBOU        CLOUDY    49  43  80 N12G18    29.89R
$$

NHZ002-005-008-009-011-012-014-232000-
NEW HAMPSHIRE

CITY           SKY/WX    TMP DP  RH WIND       PRES   REMARKS
PORTSMOUTH     MOSUNNY   81  47  29 NW10      29.79F
ROCHESTER      FAIR      82  50  32 NW17G23   29.80F
NASHUA         FAIR      83  47  28 N12G24    29.83F
MANCHESTER     FAIR      86  45  23 NW12G20   29.82F
CONCORD        FAIR      81  46  29 NW14G23   29.83F
LACONIA        PTSUNNY   77  48  35 W7        29.83F
PLYMOUTH       FAIR      78  41  26 W13G30    29.82S
BERLIN         FAIR      72  47  40 NW10G23   29.86R
WHITEFIELD     FAIR      74  50  42 NW23G31   29.86R
JAFFREY        FAIR      80  43  26 NW8G16    29.89F
KEENE          FAIR      83  46  27 NW10G23   29.87S
LEBANON        CLOUDY    80  48  32 NW12G25   29.84F
MT WASHINGTON  MOSUNNY   46  41  81 NW47G63     N/A
$$

VTZ005-007-008-232000-
VERMONT

CITY           SKY/WX    TMP DP  RH WIND       PRES   REMARKS
ST JOHNSBURY     N/A     73  49  42 MISG      29.86R
MONTPELIER     FAIR      74  49  41 NW9G20    29.93R
BURLINGTON     FAIR      74  53  48 N14G22    29.90R
$$

MAZ007-012-024-CTZ003-RIZ002-NYZ038-NYZ072-232000-
SOUTHERN NEW ENGLAND AND NY

CITY           SKY/WX    TMP DP  RH WIND       PRES   REMARKS
BOSTON         FAIR      71  57  61 E12       29.85F
WORCESTER      FAIR      79  46  31 N12G21    29.89S
NANTUCKET      FAIR      64  58  80 SW15      29.90R
PROVIDENCE     FAIR      76  59  55 SE12      29.87S
HARTFORD       FAIR      84  47  27 NW16G24   29.88S
ALBANY         FAIR      79  56  45 W9        29.92F
NEW YORK CITY  FAIR      78  54  43 N10       29.93F
$$

ANZ081-ANZ082-ANZ150-NHZ014-MEZ023>029-232000-
COASTAL MARINE OBSERVATIONS

STATION/POSITION TIME  TEMP    WIND        PRES    WAVE
                       AIR SEA DIR/SP/G            HT/PER
                 (UTC) (F)     (DEG/KT/KT) (MB)    (FT/S)
MOUNT DESERT ROC 1900   50     200/ 11/ 12 1009.0S
MATINICUS ROCK   1800   53     200/ 14/ 14 1008.9F
ISLE OF SHOALS   1800   64     160/ 16/ 16 1009.8F
JEFFREYS LEDGE   1836      56                N/A     2/ 8
CASHES LEDGE BUO 1850   57 52              1009.6F   2/ 7
$$

.............KEY..............
   WCI - WIND CHILL
   TC  - TEMPERATURE IN CELSIUS
   VSB - VISIBILITY IN MILES
   HX  - HEAT INDEX
   FAIR- INDICATES FEW OR NO CLOUDS BELOW 12,000 FT, WITH NO
         SIGNIFICANT WEATHER AND/OR OBSTRUCTIONS TO VISIBILITY.





USA.gov is the U.S. government's official web portal to all federal, state and local government web resources and services.